[[{"header":{"parameterUnit":"m.s-1","parameterCategory":1,"la1":30.2992,"la2":30.254,"lo1":-89.0895,"lo2":-89.0443,"dy":0.0025,"dx":0.0025,"nx":19,"ny":19,"refTime":"2026-03-26T03:00:00:Z","depth":0,"parameterNumber":2,"parameterNumberName":"U-component_of_WINDS"},"data":[0,0,0,1.6426,1.6427,1.6473,1.6473,1.6534,1.6535,0,0,0,0,0,0,0,0,0,0,0,1.6415,1.6416,1.6426,1.6427,1.6473,1.6473,1.6534,1.6535,0,0,0,0,0,0,0,0,0,0,0,1.6415,1.6415,1.6416,1.6427,1.6473,1.6473,1.6534,1.6498,0,0,0,0,0,0,0,0,0,0,1.6453,1.6446,1.6415,1.6416,1.6427,1.6473,1.6473,1.6496,1.65,1.6515,0,1.653,0,1.6534,1.6539,1.654,0,0,0,1.6424,1.6443,1.6453,1.6416,1.6428,1.6473,1.6451,1.6499,1.6503,1.6521,1.6531,1.6533,1.6535,1.654,1.654,1.6638,1.6638,0,0,1.6422,1.6424,1.645,1.6456,1.6451,1.645,1.6453,1.6501,1.6512,1.6531,1.6535,1.6536,1.654,1.6541,1.6637,1.6638,0,0,0,1.6416,1.6423,1.6432,1.6454,1.6462,1.6451,1.6455,1.651,1.6513,1.6535,1.6537,1.6541,1.6541,1.6637,1.6637,1.6669,0,0,0,1.6415,1.642,1.6431,1.6433,1.6461,1.6487,1.6463,1.651,1.6515,1.6536,1.6541,1.6542,1.6636,1.6637,1.6667,1.6683,0,0,0,1.6411,1.6419,1.6427,1.6433,1.6453,1.6486,1.6491,1.6511,1.6516,1.654,1.6542,1.6635,1.6637,1.6665,1.668,1.6709,0,0,0,1.6407,1.6454,1.6428,1.648,1.6453,1.6506,1.6491,1.6531,1.6555,1.6541,1.6636,1.6637,1.6664,1.6678,1.6707,1.6734,1.6746,0,0,1.6467,1.6461,1.6491,1.6469,1.6529,1.6499,1.6562,1.6581,1.658,1.6618,1.662,1.6668,1.6679,1.6709,1.6813,1.6822,0,0,0,1.6511,1.6533,1.6548,1.6572,1.6589,1.6604,1.6613,1.662,1.6653,1.6601,1.6687,1.6694,1.6711,1.6723,1.6731,1.6745,1.6644,1.6644,1.6643,1.6597,1.6596,1.6646,1.6649,1.6673,1.6683,1.6701,1.6712,1.6702,1.6723,1.6733,1.6797,1.6812,1.6818,1.6833,1.6748,1.6748,1.6749,1.6749,1.6684,1.6714,1.6701,1.6745,1.6743,1.6779,1.679,1.6782,1.6815,1.6788,1.6803,1.6774,1.6829,1.6841,1.6751,1.6751,1.675,1.675,1.675,1.6739,1.6753,1.6763,1.6798,1.6826,1.6828,1.686,1.6856,1.6853,1.6868,1.6878,1.6878,1.6876,1.6873,1.6874,1.6874,1.6874,1.6874,1.6874,1.6792,1.6802,1.6831,1.6854,1.6869,1.6889,1.6901,1.6915,1.693,1.6925,1.6925,1.6912,1.6835,1.6815,1.6878,1.6877,1.6877,1.6876,1.6876,1.6878,1.6859,1.6903,1.6919,1.6946,1.6973,1.6969,1.6999,1.7011,1.7027,1.7012,1.6956,1.6949,1.6942,1.6926,1.7013,1.7013,1.7013,1.7013,1.6924,1.6921,1.6966,1.6991,1.7016,1.7017,1.7066,1.7076,1.7082,1.7089,1.7076,1.7054,1.7048,1.7044,1.7036,1.702,1.713,1.713,1.713,1.6976,1.6976,1.7018,1.7027,1.7048,1.7066,1.7112,1.714,1.7144,1.7134,1.7094,1.7089,1.7054,1.7043,1.7031,1.7017,1.6989,0,0]},{"header":{"parameterUnit":"m.s-1","parameterCategory":1,"la1":30.2992,"la2":30.254,"lo1":-89.0895,"lo2":-89.0443,"dy":0.0025,"dx":0.0025,"nx":19,"ny":19,"refTime":"2026-03-26T03:00:00:Z","depth":0,"parameterNumber":3,"parameterNumberName":"V-component_of_WINDS"},"data":[0,0,0,2.5631,2.5632,2.5681,2.5681,2.5748,2.5749,0,0,0,0,0,0,0,0,0,0,0,2.5621,2.5622,2.5631,2.5632,2.5681,2.5681,2.5748,2.5749,0,0,0,0,0,0,0,0,0,0,0,2.5621,2.5622,2.5623,2.5633,2.5681,2.5681,2.5748,2.5709,0,0,0,0,0,0,0,0,0,0,2.5661,2.5657,2.5622,2.5623,2.5633,2.5681,2.5681,2.5707,2.5711,2.5729,0,2.5747,0,2.5749,2.5754,2.5754,0,0,0,2.5628,2.5653,2.5662,2.5623,2.5633,2.5681,2.5658,2.5709,2.5714,2.5734,2.5748,2.575,2.575,2.5754,2.5754,2.5873,2.5874,0,0,2.5625,2.5632,2.5659,2.5666,2.5661,2.5656,2.5659,2.5712,2.5726,2.5748,2.5752,2.5751,2.5755,2.5755,2.5872,2.5873,0,0,0,2.5621,2.563,2.5638,2.5663,2.5672,2.5658,2.5661,2.5724,2.5726,2.5752,2.5752,2.5755,2.5756,2.5871,2.5873,2.5917,0,0,0,2.5619,2.5628,2.5637,2.5642,2.5671,2.5699,2.5672,2.5722,2.5728,2.5752,2.5755,2.5757,2.5871,2.5872,2.5914,2.5936,0,0,0,2.5617,2.5627,2.5636,2.5642,2.5663,2.5698,2.5703,2.5723,2.5728,2.5754,2.5757,2.587,2.5872,2.5911,2.5932,2.597,0,0,0,2.5615,2.5674,2.5637,2.5702,2.5663,2.5726,2.5702,2.5748,2.5775,2.5755,2.5871,2.5872,2.5911,2.5929,2.5967,2.6004,2.6019,0,0,2.5692,2.5683,2.5721,2.5689,2.5761,2.5718,2.5795,2.5812,2.5807,2.5851,2.5854,2.5915,2.5932,2.597,2.6105,2.6118,0,0,0,2.5747,2.5774,2.5792,2.5819,2.5835,2.5851,2.5856,2.5863,2.59,2.5832,2.5939,2.5948,2.597,2.5987,2.5998,2.6016,2.5881,2.588,2.588,2.5865,2.5858,2.5919,2.5918,2.5945,2.5951,2.5971,2.598,2.5963,2.5989,2.6002,2.6086,2.6106,2.6114,2.6133,2.602,2.602,2.6021,2.6021,2.5977,2.6014,2.5992,2.6044,2.6036,2.6079,2.6086,2.6073,2.6111,2.6075,2.6094,2.6055,2.6128,2.6144,2.6024,2.6023,2.6023,2.6023,2.6022,2.6053,2.607,2.6078,2.6118,2.6149,2.6144,2.6183,2.6173,2.6163,2.6182,2.6195,2.6194,2.6192,2.6189,2.6189,2.6189,2.619,2.619,2.619,2.6129,2.6137,2.6171,2.6194,2.6211,2.6232,2.6239,2.6254,2.6268,2.6258,2.6258,2.6239,2.6137,2.6111,2.6195,2.6194,2.6193,2.6193,2.6192,2.6245,2.6217,2.6271,2.6288,2.6314,2.6345,2.6333,2.6366,2.6377,2.6396,2.6373,2.6299,2.6288,2.6279,2.6258,2.6375,2.6375,2.6375,2.6375,2.6309,2.6303,2.6356,2.6384,2.641,2.6404,2.6463,2.6469,2.647,2.6477,2.6459,2.643,2.6421,2.6415,2.6404,2.6384,2.6529,2.6529,2.653,2.638,2.6377,2.643,2.6433,2.6453,2.647,2.6525,2.6557,2.6552,2.6536,2.6482,2.6475,2.6428,2.6414,2.6395,2.6378,2.6341,0,0]}]]